Content
SEND FEEDBACK

Daily
Averages
Monthly
Summary
Mexico

LOMAS DE SAYAVEDRA, MÉXICO


Home > North America > Mexico > México
Elevation: 7743 feet     Latitude: 19 34N     Longitude: 099 16W

WEATHER
 
SELECT A DAY
Number of Records: 214,226;   Date Range: 1/1/95 - 12/17/14
 
SHARE

PRINT THIS DATA

[ ← Previous Day ]
WEATHER ALMANAC - JANUARY 23, 2013
[ Next Day → ]
[ °C ]   °F
Weather ElementAverageHighLow
Temperature56.6 °F66.2 °F (2:13 pm)50 °F (5:43 am)
Dewpoint42.2 °F44.6 °F (1:48 am)37.4 °F (2:13 pm)
Humidity60.6 %82 % (6:22 am)35 % (2:13 pm)
Barometer30.34 in30.51 in (9:21 am)29.97 in (2:45 pm)
Wind Speed7 mph15 mph (6:44 pm)
Weather ElementAverage
Visibility6.6 mi
Wind DirectionSSW (189.7 °)

Weather ElementTotal
Precipitation---
Heating Degree Days6.9 (Base 65)
Growing Degree Days8.1 (Base 50)
Averaged from 29 records on January 23, 2013
WEATHER CONDITIONS BREAKOUT
WIND DIRECTION BREAKOUT
WEATHER BY HOUR - JANUARY 23, 2013
[ °C ]   °F
Local TimeTemperatureDewpointHumidityBarometerVisibilityWind DirectionWind SpeedGust SpeedPrecipitationEventsConditions
1:48 AM51.8 °F44.6 °F76 %30.41 in8.0 miWest (280°)9.2 mphScattered Clouds
2:50 AM51.8 °F44.6 °F76 %30.07 in6.0 miWest (280°)6.9 mphMostly Cloudy
3:46 AM51.8 °F44.6 °F76 %30.41 in8.0 miWNW (300°)4.6 mphMostly Cloudy
4:42 AM51.8 °F44.6 °F76 %30.41 in8.0 miWest (270°)9.2 mphOvercast
5:43 AM50.0 °F42.8 °F76 %30.03 in8.0 miEast (80°)8.1 mphMostly Cloudy
6:22 AM50.0 °F44.6 °F82 %30.44 in8.0 miEast (90°)5.8 mphMostly Cloudy
6:43 AM50.0 °F44.6 °F82 %30.45 in6.0 miEast (100°)3.5 mphMostly Cloudy
7:20 AM50.0 °F44.6 °F82 %30.46 in4.0 miCalmMostly Cloudy
7:43 AM50.0 °F44.6 °F82 %30.47 in4.0 miEast (90°)4.6 mphMostly Cloudy
8:19 AM51.8 °F44.6 °F76 %30.48 in4.0 miEast (80°)5.8 mphMostly Cloudy
8:44 AM53.6 °F44.6 °F72 %30.10 in4.0 miENE (60°)3.5 mphMostly Cloudy
9:21 AM55.4 °F44.6 °F67 %30.51 in4.0 miCalmMostly Cloudy
9:44 AM55.4 °F44.6 °F67 %30.51 in4.0 miCalmScattered Clouds
10:26 AM59.0 °F42.8 °F55 %30.51 in4.0 miCalmPartly Cloudy
10:45 AM60.8 °F42.8 °F52 %30.51 in5.0 miNorth (350°)3.5 mphScattered Clouds
11:48 AM62.6 °F41.0 °F45 %30.06 in5.0 miWest (280°)8.1 mphScattered Clouds
12:45 PM64.4 °F41.0 °F42 %30.45 in5.0 miNNW (340°)8.1 mphScattered Clouds
1:47 PM62.6 °F41.0 °F45 %30.41 in4.0 miNNW (330°)9.2 mphMostly Cloudy
2:13 PM66.2 °F37.4 °F35 %30.40 in4.0 miNNW (340°)10.4 mphMostly Cloudy
2:45 PM64.4 °F39.2 °F40 %29.97 in5.0 miNorth (350°)6.9 mphMostly Cloudy
3:45 PM64.4 °F37.4 °F37 %30.38 in6.0 miNorth (350°)10.4 mphMostly Cloudy
4:44 PM62.6 °F37.4 °F39 %30.39 in7.0 miNorth (360°)10.4 mphMostly Cloudy
5:47 PM62.6 °F39.2 °F42 %30.01 in7.0 miNNW (340°)6.9 mphOvercast
6:44 PM60.8 °F41.0 °F48 %30.42 in8.0 miNE (40°)15.0 mphOvercast
7:44 PM59.0 °F41.0 °F51 %30.45 in10.0 miNE (40°)13.8 mphMostly Cloudy
8:46 PM57.2 °F41.0 °F55 %30.08 in10.0 miNNE (20°)9.2 mphMostly Cloudy
9:45 PM55.4 °F41.0 °F58 %30.49 in12.0 miNNE (20°)8.1 mphMostly Cloudy
10:52 PM53.6 °F41.0 °F62 %30.49 in12.0 miNorth (350°)10.4 mphMostly Cloudy
11:40 PM53.6 °F41.0 °F62 %30.11 in12.0 miNorth (360°)11.5 mphMostly Cloudy
Hourly data recorded from MMMX, located miles away from Lomas de Sayavedra, México







STORIES FROM OUR PARTNERS